Location: Middle Street
(51.7167°N, 0.0333°E)
Time: 23:55:44
(UTC+00:00)

Cosmos 1400 Rocket - Pass Details

Date: 20 January 2021
Orbit: 520 x 568 km, 81.2° (Epoch: 01 March)

Event Time Altitude Azimuth Distance (km) Brightness Sun altitude
Rises 17:01:31 0° 344° (NNW) 2,781 6.3 -5.4°
Reaches altitude 10° 17:03:45 10° 341° (NNW) 1,876 5.5 -5.7°
Maximum altitude 17:07:49 59° 262° (W) 657 3.6 -6.3°
Drops below altitude 10° 17:11:49 10° 183° (S) 1,839 5.9 -6.8°
Sets 17:13:59 0° 179° (S) 2,722 6.7 -7.2°
